Weather History for KDSM - April, 2014

Change the Weather History Date:

Saturday, April 5, 2014

  Actual Average Record
Temperature  
Mean Temperature 42 °F 48 °F  
Max Temperature 58 °F 58 °F 86 °F (2000)
Min Temperature 25 °F 37 °F 16 °F (1982)
Degree Days  
Heating Degree Days 23 18  
Month to date heating degree days 127 92  
Since 1 July heating degree days 6364 5719  
Cooling Degree Days 0 0  
Month to date cooling degree days 0 0  
Year to date cooling degree days 0 1  
Moisture  
Dew Point 25 °F    
Average Humidity 55    
Maximum Humidity 85    
Minimum Humidity 24    
Precipitation  
Precipitation 0.00 in 0.11 in 1.22 in (1965)
Month to date precipitation 0.13 0.49  
Year to date precipitation 3.10 5.07  
Snow  
Snow 0.00 in 0.10 in 6.60 in (1982)
Month to date snowfall 0.1 0.5  
Since 1 July snowfall 47.6 34.0  
Snow Depth 0.00 in    
Sea Level Pressure  
Sea Level Pressure 30.14 in    
Wind  
Wind Speed 7 mph (South)    
Max Wind Speed 16 mph    
Max Gust Speed 20 mph    
Visibility 10 miles    
Events      
T = Trace of Precipitation, MM = Missing Value Source: NWS Daily Summary

Daily Weather History Graph

Daily Weather History Graph

Search for Another Location

Airport or City:

Trip Planner

Search our weather history database for the weather conditions in past years. The results will help you decide how hot, cold, wet, or windy it might be!

Date:

Astronomy

Apr. 05, 2014 Rise Set
Actual Time 6:50 AM CDT 7:44 PM CDT
Civil Twilight 6:22 AM CDT 8:12 PM CDT
Nautical Twilight 5:49 AM CDT 8:46 PM CDT
Astronomical Twilight 5:14 AM CDT 9:21 PM CDT
Moon 10:56 AM CDT (4/5) 12:57 AM CDT (4/5)
Length of Visible Light 13h 49m
Length of Day
12h 53m
Waxing Crescent, 34% of the Moon is Illuminated
Apr 5
Waxing Crescent
Apr 7
First Quarter
Apr 15
Full
Apr 22
Last Quarter
Apr 29
New

Hourly Weather History & Observations

Time (CDT) Temp. Windchill Dew Point Humidity Pressure Visibility Wind Dir Wind Speed Gust Speed Precip Events Conditions
12:54 AM 34.0 °F 29.8 °F 26.1 °F 73% 30.18 in 10.0 mi West 4.6 mph - N/A   Mostly Cloudy
1:54 AM 32.0 °F 28.7 °F 25.0 °F 75% 30.18 in 10.0 mi WNW 3.5 mph - N/A   Clear
2:54 AM 30.9 °F 26.2 °F 25.0 °F 79% 30.19 in 10.0 mi WSW 4.6 mph - N/A   Clear
3:54 AM 30.0 °F 26.5 °F 25.0 °F 82% 30.18 in 10.0 mi WSW 3.5 mph - N/A   Clear
4:54 AM 28.0 °F - 23.0 °F 81% 30.17 in 10.0 mi Calm Calm - N/A   Clear
5:54 AM 27.0 °F 23.0 °F 23.0 °F 85% 30.18 in 10.0 mi South 3.5 mph - N/A   Clear
6:54 AM 27.0 °F 21.6 °F 23.0 °F 85% 30.19 in 10.0 mi South 4.6 mph - N/A   Partly Cloudy
7:54 AM 28.9 °F 21.9 °F 25.0 °F 85% 30.21 in 10.0 mi South 6.9 mph - N/A   Scattered Clouds
8:54 AM 34.0 °F 29.8 °F 28.0 °F 79% 30.22 in 10.0 mi SSW 4.6 mph - N/A   Scattered Clouds
9:54 AM 39.9 °F 33.9 °F 28.0 °F 63% 30.22 in 10.0 mi South 9.2 mph - N/A   Scattered Clouds
10:54 AM 44.1 °F 38.1 °F 27.0 °F 51% 30.22 in 10.0 mi SSW 11.5 mph - N/A   Scattered Clouds
11:54 AM 46.9 °F - 27.0 °F 46% 30.21 in 10.0 mi Variable 5.8 mph - N/A   Scattered Clouds
12:54 PM 50.0 °F - 28.0 °F 43% 30.18 in 10.0 mi Variable 6.9 mph - N/A   Scattered Clouds
1:54 PM 52.0 °F - 26.1 °F 37% 30.15 in 10.0 mi Variable 5.8 mph - N/A   Scattered Clouds
2:54 PM 54.0 °F - 26.1 °F 34% 30.13 in 10.0 mi Variable 3.5 mph - N/A   Scattered Clouds
3:54 PM 57.0 °F - 23.0 °F 27% 30.10 in 10.0 mi South 6.9 mph 18.4 mph N/A   Partly Cloudy
4:54 PM 57.0 °F - 23.0 °F 27% 30.09 in 10.0 mi South 10.4 mph - N/A   Partly Cloudy
5:54 PM 57.0 °F - 21.9 °F 26% 30.07 in 10.0 mi SSE 15.0 mph - N/A   Partly Cloudy
6:54 PM 54.0 °F - 23.0 °F 30% 30.07 in 10.0 mi South 11.5 mph - N/A   Scattered Clouds
7:54 PM 53.1 °F - 23.0 °F 31% 30.06 in 10.0 mi SSE 9.2 mph - N/A   Mostly Cloudy
8:54 PM 50.0 °F - 25.0 °F 38% 30.05 in 10.0 mi SSE 10.4 mph - N/A   Scattered Clouds
9:54 PM 48.0 °F - 26.1 °F 42% 30.06 in 10.0 mi South 10.4 mph - N/A   Scattered Clouds
10:54 PM 46.0 °F 41.0 °F 27.0 °F 47% 30.06 in 10.0 mi South 10.4 mph - N/A   Scattered Clouds
11:54 PM 43.0 °F 38.8 °F 27.0 °F 53% 30.06 in 10.0 mi South 6.9 mph - N/A   Partly Cloudy